Regional Weather Roundup
Issued by NWS

Home | Current Version | Previous Version | Graphics & Text | Print | Product List | Glossary Off
Versions: 1 2 3 4 5 6 7 8 9 10 11 12 13 14 15 16 17 18 19 20 21 22 23 24 25 26 27 28 29 30 31 32 33 34 35 36 37 38 39 40 41 42 43 44 45 46 47 48 49 50

000
ASUS43 KMPX 211710
RWRMN
WEATHER ROUNDUP FOR MINNESOTA
NATIONAL WEATHER SERVICE TWIN CITIES/CHANHASSEN MN
1200 PM CDT FRI JUL 21 2017


NOTE: "FAIR" INDICATES FEW OR NO CLOUDS BELOW 12,000 FEET WITH NO
SIGNIFICANT WEATHER AND/OR OBSTRUCTIONS TO VISIBILITY. N/A MEANS
CURRENT SKY AND/OR WEATHER CONDITIONS ARE NOT AVAILABLE.

MNZ060>063-068>070-211800-
   Twin Cities Metro

CITY           SKY/WX    TMP DP  RH WIND       PRES   REMARKS
TWIN CITIES    CLOUDY    74  67  78 S13       29.88F
ST PAUL        CLOUDY    73  68  84 SE12      29.88F
CRYSTAL        CLOUDY    74  64  71 VRB7      29.87F
BLAINE         CLOUDY    75  70  83 SE12G17   29.88F
LAKEVILLE      DRIZZLE   72  72 100 SE7       29.90S
EDEN PRAIRIE   CLOUDY    75  69  81 SE13      29.87F
SOUTH ST PAUL  CLOUDY    73  69  86 SE8       29.88F
LAKE ELMO      FAIR      72  68  88 SE8       29.90F
$$
MNZ001>005-007-008-013>017-022>024-027-028-211800-
   Northwest Minnesota

CITY           SKY/WX    TMP DP  RH WIND       PRES   REMARKS
BEMIDJI        SUNNY     83  60  46 SE16      29.86F
HALLOCK        PTSUNNY   77  70  78 NW5       29.86R
ROSEAU         SUNNY     77  64  65 E13       29.83F
WARROAD        SUNNY     75  66  73 E10       29.86F
THIEF RVR FALL CLOUDY    80  72  76 S5        29.82F
CROOKSTON      MOSUNNY   81  73  78 SW6       29.79F
FOSSTON        SUNNY     81  68  65 S8        29.83F
DETROIT LAKES  MOSUNNY   79  70  73 SE9       29.84S
MOORHEAD       CLOUDY    84  72  65 S7        29.79R
PARK RAPIDS    MOSUNNY   85  64  49 SE18      29.85F
MAHNOMEN       PTSUNNY   81  71  71 S7        29.82S
$$
MNZ006-009>011-018-025>026-211800-
   North Central Minnesota

CITY           SKY/WX    TMP DP  RH WIND       PRES   REMARKS
BAUDETTE       CLOUDY    77  60  55 E14       29.87F
FLAG ISLAND    MOSUNNY   73  57  56 SE9       29.88F
INTL FALLS     MOSUNNY   71  60  68 E7        29.92F
WASKISH        CLOUDY    79  66  65 SE9       29.87F
BIG FORK       SUNNY     81  64  57 SE8       29.90S
LONGVILLE      MOSUNNY   81  66  61 SE9G20    29.87F
GRAND RAPIDS   MOSUNNY   77  68  73 SE9       29.92F
CRANE LAKE     CLOUDY    68  61  77 CALM      29.96S
ORR            CLOUDY    73  55  53 SE3       29.91S
COOK           CLOUDY    73  61  64 E6        29.94S
WALKER         PTSUNNY   80  60  49 SE8G16    29.87S
$$
MNZ012-019>021-037-211800-
   Northeast Minnesota

CITY           SKY/WX    TMP DP  RH WIND       PRES   REMARKS
DULUTH         CLOUDY    72  64  76 E10       29.95S
ELY            CLOUDY    72  55  56 E6        29.97F
HIBBING        MOSUNNY   78  67  68 SE13      29.92F
EVELETH        MOSUNNY   78  58  51 SE8       29.95S
DULUTH HARBOR  CLOUDY    66  63  88 NE7       29.94F
TWO HARBORS    CLOUDY    75  61  60 E6        29.93F
SILVER BAY     CLOUDY    75  57  53 NE5       29.95S
GRAND MARAIS     N/A     61  55  81 CALM      29.98R
G MARAIS ARPRT CLOUDY    66  54  63 CALM      30.02R
$$
MNZ029>031-032-039>041-046>048-054>057-064-211800-
   West Central Minnesota

CITY           SKY/WX    TMP DP  RH WIND       PRES   REMARKS
FERGUS FALLS   PTSUNNY   79  72  78 S7        29.81S
WHEATON        MOSUNNY   79  70  73 CALM      29.83R
MORRIS         MOSUNNY   81  70  69 SE7       29.82R
ALEXANDRIA     MOSUNNY   78  70  76 SE10      29.86S
ELBOW LAKE     FAIR      79  73  80 S6        29.83S
WADENA         CLOUDY    77  66  69 SE9G16    29.85S
GLENWOOD       CLOUDY    77  70  78 SE10      29.85S
APPLETON       CLOUDY    81  70  69 SE9       29.82R
BENSON         CLOUDY    81  70  69 SE8G16    29.84R
ORTONVILLE     MOSUNNY   82  72  69 CALM      29.81R
MADISON        MOSUNNY   82  72  69 E9        29.82R
WILLMAR        FAIR      77  72  83 SE15      29.86R
$$
MNZ033>034-036-042>043-049>051-058-059-211800-
   Central Minnesota

CITY           SKY/WX    TMP DP  RH WIND       PRES   REMARKS
ST CLOUD       CLOUDY    78  71  79 SE15G22   29.86S
SAUK CENTRE    FAIR      76  71  82 SE9       29.86R
PAYNESVILLE    CLOUDY    77  69  77 SE12      29.85F
AITKIN         CLOUDY    77  64  65 SE12G18   29.88F
PINE RIVER     CLOUDY    79  66  65 SE10      29.89F
BRAINERD       CLOUDY    79  63  57 SE12G18   29.87F
STAPLES        MOSUNNY   81  61  50 SE10      29.85F
LONG PRAIRIE   FAIR      75  70  83 E8        29.86S
LITTLE FALLS   CLOUDY    75  66  73 SE8       29.87S
LITCHFIELD     CLOUDY    79  72  78 SE12      29.86S
BUFFALO        CLOUDY    74  68  79 E9        29.87F
MAPLE LAKE     PTSUNNY   76  71  86 SE7       29.87F
HUTCHINSON     PTSUNNY   75  72  91 SE12      29.88R
$$
MNZ037-044-045-052-053-211800-
   East Central Minnesota

CITY           SKY/WX    TMP DP  RH WIND       PRES   REMARKS
PRINCETON      CLOUDY    79  70  73 SE9G17    29.87S
MORA           PTSUNNY   77  64  65 SE7       29.91F
CAMBRIDGE      CLOUDY    79  66  65 SE10G18   29.87F
RUSH CITY      CLOUDY    77  68  75 S9        29.91S
MOOSE LAKE     CLOUDY    77  66  69 S3        29.91F
HINCKLEY       FAIR      81  70  69 SE9       29.91F
CLOQUET        CLOUDY    72  61  68 SE3       29.95S
MCGREGOR       CLOUDY    77  64  65 SE9       29.91F
$$
MNZ071>073-080-081-089-090-097-098-211800-
   Southwest Minnesota

CITY           SKY/WX    TMP DP  RH WIND       PRES   REMARKS
MONTEVIDEO     CLOUDY    81  72  74 S12G21    29.81S
GRANITE FALLS  CLOUDY    79  73  81 E7        29.84F
CANBY          CLOUDY    82  73  74 CALM      29.83R
MARSHALL       PTSUNNY   80  71  74 SE12      29.82R
REDWOOD FALLS  CLOUDY    77  71  82 SE9       29.84R
OLIVIA         CLOUDY    73  70  88 SE9       29.85R
PIPESTONE      CLOUDY    81  70  69 SE12      29.82R
WINDOM         PTSUNNY   75  70  83 SE16G23   29.82F
WORTHINGTON    CLOUDY    74  71  91 E9        29.83F
JACKSON        PTSUNNY   72  72 100 E14       29.85F
SLAYTON        CLOUDY    74  67  77 SE14G21   29.82S
$$
MNZ065>067-074>077-082>085-091>093-211800-
   South Central Minnesota

CITY           SKY/WX    TMP DP  RH WIND       PRES   REMARKS
MANKATO        LGT RAIN  73  72  94 SE15      29.86F
NEW ULM        CLOUDY    73  70  88 SE13      29.84R
ST JAMES       CLOUDY    73  72  94 SE16G22   29.84F
FAIRMONT       RAIN      73  71  93 SE21G26   29.85F FOG
GLENCOE        PTSUNNY   77  73  90 SE9       29.87R
FARIBAULT      LGT RAIN  72  70  94 SE9       29.91R
OWATONNA       RAIN      72  68  88 SE13G18   29.92R
WASECA         LGT RAIN  72  70  94 SE13G20   29.91S
ALBERT LEA     CLOUDY    70  68  94 SE15G22   29.92S
$$
MNZ078>079-086>088-094>096-211800-
   Southeast Minnesota

CITY           SKY/WX    TMP DP  RH WIND       PRES   REMARKS
ROCHESTER      LGT RAIN  68  68 100 S12       29.96F
RED WING       LGT RAIN  73  70  88 SE9       29.91F
STANTON        DRIZZLE   73  69  89 S12       29.90F
DODGE CENTER   LGT RAIN  70  66  88 SE13G20   29.94F
WINONA         LGT RAIN  72  70  94 W5        29.98S
AUSTIN         DRIZZLE   70  66  88 SE14      29.95S
PRESTON        LGT RAIN  67  65  94 SW7       30.00F
$$
ABBREVIATIONS USED IN REMARKS
   TC - TEMPERATURES IN CELSIUS
  WCI - WIND CHILL INDEX
   HX - HEAT INDEX
  VSB - VISIBILITY
$$




USA.gov is the U.S. government's official web portal to all federal, state and local government web resources and services.